Airfield :
LOGIN :

Register | Disclaimer

   EN    FR    IT 

 










Legend :    VFR   Marginal VFR   IFR   Intensive IFR   Very Intensive IFR
Visi :
Ceiling :
>= 8 km
>= 3000ft
5 to 8 km
1000 to 3000 ft
1500m to 5 km
500 to 1000 ft
800 to 1500m
200 to 500 ft
< 800m
< 200 ft
Symbols :   Thunderstorms  Fog  Heavy snow  Heavy precipitations  Wind > 20 kt
SIGMETs :     Misc.  Thunderstorms  Icing  Turbulence  Mountain Waves  Volcanic Ashes






- Airport Elevation : 388 ft
- IATA code : QYR


LFQB - Troyes Barberey

CURRENT METAR :
  • 170400Z AUTO 22011KT 9999 BKN023/// BKN046/// OVC060/// ///CB 10/08 Q1006

EXPIRED METARs :
  • 170330Z AUTO 22012KT 9999 BKN021/// BKN030/// BKN037/// ///CB 11/08 Q1006
  • 170300Z AUTO 22011KT 9999 BKN021/// BKN031/// BKN045/// ///CB 10/09 Q1006
  • 170230Z AUTO 22011KT 9999 FEW020/// BKN028/// BKN033/// ///TCU 11/08 Q1006
  • 170200Z AUTO 23013KT 9999 SCT020 BKN026 OVC060 11/08 Q1006
  • 170130Z AUTO 23013KT 9999 FEW022 BKN044 OVC068 10/09 Q1006

TAF N/A



MET'MAP, your aeronautical weather chart ! - Copyright ORBIFLY December 2007 - Disclaimer

ORBIFLY MET'MAP TEAM :

Programming & Development : Alexandra Zaïnal
Concept & original design : Baudouin d'Aumeries
Assistance for programming : Marc-Olivier Méhu
Technical & hardware support : Manuel Goepfert

Contact : metmap@orbifly.com




SOURCES & CREDITS :

   NOAA